TimeEDT,TemperatureF,Dew PointF,Humidity,Sea Level PressureIn,VisibilityMPH,Wind Direction,Wind SpeedMPH,Gust SpeedMPH,PrecipitationIn,Events,Conditions,WindDirDegrees,DateUTC
12:51 AM,46.9,41.9,83,30.16,10.0,NNW,3.5,-,N/A,,Mostly Cloudy,330,2012-10-24 04:51:00
1:51 AM,45.9,41.9,86,30.17,10.0,Calm,Calm,-,N/A,,Mostly Cloudy,0,2012-10-24 05:51:00
2:51 AM,43.9,39.9,86,30.17,10.0,Calm,Calm,-,N/A,,Clear,0,2012-10-24 06:51:00
3:51 AM,41.9,38.8,89,30.18,10.0,Calm,Calm,-,N/A,,Clear,0,2012-10-24 07:51:00
4:51 AM,39.9,36.9,89,30.19,10.0,NW,3.5,-,N/A,,Clear,310,2012-10-24 08:51:00
5:51 AM,38.8,36.0,89,30.19,10.0,NW,3.5,-,N/A,,Scattered Clouds,310,2012-10-24 09:51:00
6:51 AM,39.9,36.9,89,30.21,10.0,NW,3.5,-,N/A,,Partly Cloudy,310,2012-10-24 10:51:00
7:51 AM,38.8,36.0,89,30.23,10.0,Calm,Calm,-,N/A,,Clear,0,2012-10-24 11:51:00
8:30 AM,42.8,37.4,81,30.22,2.0,WNW,3.5,-,N/A,,Haze,300,2012-10-24 12:30:00
8:39 AM,42.8,37.4,81,30.22,10.0,NW,3.5,-,N/A,,Clear,310,2012-10-24 12:39:00
8:51 AM,43.9,36.9,76,30.23,10.0,NW,3.5,-,N/A,,Clear,310,2012-10-24 12:51:00
9:51 AM,48.9,36.0,61,30.22,10.0,Calm,Calm,-,N/A,,Mostly Cloudy,0,2012-10-24 13:51:00
12:51 PM,54.9,34.9,47,30.19,10.0,Calm,Calm,-,N/A,,Mostly Cloudy,0,2012-10-24 16:51:00
1:51 PM,56.8,37.9,49,30.17,10.0,SW,4.6,-,N/A,,Partly Cloudy,230,2012-10-24 17:51:00
2:51 PM,59.0,36.9,44,30.15,10.0,Variable,4.6,-,N/A,,Mostly Cloudy,0,2012-10-24 18:51:00
3:51 PM,57.9,36.9,45,30.15,10.0,Variable,3.5,-,N/A,,Partly Cloudy,0,2012-10-24 19:51:00
4:51 PM,55.9,37.9,51,30.16,10.0,South,3.5,-,0.00,,Mostly Cloudy,190,2012-10-24 20:51:00
5:51 PM,54.0,38.8,57,30.18,10.0,Calm,Calm,-,N/A,,Overcast,0,2012-10-24 21:51:00
6:51 PM,52.9,38.8,59,30.19,10.0,Calm,Calm,-,N/A,,Overcast,0,2012-10-24 22:51:00
7:51 PM,52.0,41.0,66,30.21,10.0,Calm,Calm,-,N/A,,Overcast,0,2012-10-24 23:51:00
9:51 PM,45.0,38.8,79,30.23,10.0,Calm,Calm,-,N/A,,Clear,0,2012-10-25 01:51:00
10:51 PM,43.0,38.8,85,30.23,10.0,Calm,Calm,-,N/A,,Clear,0,2012-10-25 02:51:00
11:51 PM,41.0,37.9,89,30.23,10.0,Calm,Calm,-,N/A,,Clear,0,2012-10-25 03:51:00